Precipitable_Water
1.23 1.22 1.35 1.42 1.47 1.51 1.54 1.55 1.57 1.65 1.73 1.83 1.97 1.97 1.89 1.73 1.53 1.50 1.52 1.53 1.49 1.41 1.38 1.40 1.40 1.32 1.27 1.40 1.49 1.50 1.41 1.41 1.27 1.13 1.13 1.11 1.14 1.11 1.09 1.12 1.15 1.18 1.18
1.00 1.16 1.28 1.30 1.35 1.39 1.41 1.43 1.45 1.47 1.52 1.59 1.69 1.77 1.91 1.93 1.85 1.79 1.64 1.58 1.56 1.60 1.52 1.45 1.44 1.41 1.30 1.25 1.36 1.38 1.33 1.30 1.25 1.18 1.17 1.19 1.22 1.19 1.14 1.19 1.21 1.13 1.09
0.91 1.03 1.12 1.29 1.20 1.24 1.26 1.28 1.28 1.27 1.30 1.33 1.40 1.51 1.64 1.76 1.92 1.99 1.98 1.89 1.76 1.68 1.64 1.62 1.54 1.51 1.42 1.31 1.25 1.28 1.30 1.28 1.27 1.24 1.23 1.26 1.24 1.25 1.18 1.26 1.24 1.18 1.12
0.79 0.82 0.97 1.04 1.05 1.10 1.14 1.15 1.18 1.19 1.17 1.17 1.20 1.25 1.33 1.43 1.55 1.67 1.79 1.91 1.91 1.91 1.83 1.73 1.69 1.63 1.60 1.54 1.36 1.29 1.30 1.29 1.26 1.27 1.29 1.30 1.29 1.29 1.24 1.27 1.24 1.21 1.13
0.72 0.77 0.87 0.91 1.08 1.00 0.95 1.00 1.07 1.12 1.12 1.11 1.08 1.10 1.12 1.17 1.28 1.37 1.48 1.61 1.74 1.85 1.93 1.92 1.80 1.69 1.61 1.63 1.64 1.48 1.33 1.30 1.28 1.27 1.31 1.30 1.34 1.34 1.36 1.31 1.24 1.23 1.17
0.61 0.66 0.64 0.84 0.85 0.82 0.83 0.88 0.87 0.89 0.94 0.98 1.11 1.03 1.03 1.02 1.05 1.06 1.17 1.32 1.48 1.56 1.65 1.77 1.88 1.88 1.80 1.64 1.63 1.67 1.62 1.47 1.31 1.26 1.24 1.31 1.32 1.36 1.39 1.34 1.27 1.24 1.21
0.50 0.54 0.59 0.61 0.64 0.69 0.71 0.72 0.76 0.82 0.88 0.87 0.85 0.96 1.05 0.99 0.96 0.95 0.94 0.97 1.04 1.16 1.36 1.53 1.67 1.78 1.89 1.91 1.84 1.71 1.67 1.71 1.58 1.35 1.23 1.24 1.30 1.34 1.41 1.37 1.33 1.26 1.25
0.44 0.47 0.48 0.51 0.55 0.57 0.60 0.62 0.67 0.72 0.76 0.75 0.83 0.88 0.89 0.95 0.97 1.02 0.95 0.86 0.86 0.91 0.97 1.09 1.32 1.49 1.67 1.79 1.83 1.78 1.72 1.63 1.72 1.65 1.49 1.29 1.32 1.37 1.47 1.58 1.33 1.29 1.28
0.41 0.40 0.40 0.39 0.38 0.38 0.40 0.43 0.50 0.56 0.58 0.64 0.66 0.74 0.78 0.81 0.84 0.90 0.85 0.93 0.89 0.78 0.85 0.90 0.94 1.05 1.26 1.40 1.55 1.69 1.73 1.66 1.62 1.72 1.74 1.58 1.39 1.39 1.43 1.56 1.52 1.31 1.27
0.33 0.29 0.27 0.26 0.25 0.25 0.25 0.27 0.31 0.32 0.35 0.40 0.47 0.50 0.60 0.63 0.60 0.66 0.76 0.73 0.76 0.84 0.82 0.82 0.85 0.85 0.88 0.96 1.15 1.36 1.51 1.61 1.62 1.48 1.61 1.76 1.70 1.58 1.47 1.54 1.55 1.48 1.28
0.23 0.23 0.23 0.22 0.22 0.22 0.21 0.22 0.24 0.24 0.24 0.24 0.27 0.29 0.32 0.38 0.48 0.54 0.63 0.72 0.82 0.74 0.85 0.85 0.83 0.80 0.79 0.76 0.77 0.90 1.06 1.18 1.32 1.43 1.58 1.68 1.79 1.79 1.70 1.63 1.56 1.56 1.46
0.19 0.19 0.20 0.20 0.21 0.21 0.21 0.21 0.21 0.21 0.20 0.21 0.21 0.22 0.23 0.26 0.27 0.35 0.49 0.58 0.64 0.73 0.74 0.78 0.77 0.73 0.70 0.65 0.61 0.65 0.70 0.78 1.01 1.23 1.31 1.37 1.64 1.77 1.82 1.76 1.73 1.62 1.62
0.19 0.20 0.21 0.20 0.21 0.23 0.23 0.25 0.26 0.26 0.26 0.24 0.23 0.22 0.21 0.21 0.24 0.26 0.26 0.33 0.45 0.55 0.62 0.67 0.67 0.66 0.63 0.61 0.59 0.59 0.59 0.61 0.66 0.91 1.13 1.23 1.41 1.71 1.75 1.82 1.83 1.79 1.74
0.18 0.19 0.21 0.23 0.25 0.26 0.27 0.28 0.30 0.30 0.30 0.28 0.27 0.27 0.25 0.24 0.24 0.21 0.23 0.25 0.31 0.40 0.46 0.56 0.62 0.64 0.64 0.62 0.58 0.56 0.55 0.53 0.56 0.60 0.78 0.96 1.13 1.37 1.61 1.81 1.87 1.87 1.82
0.20 0.22 0.25 0.29 0.32 0.33 0.34 0.36 0.37 0.38 0.38 0.37 0.35 0.34 0.32 0.30 0.25 0.23 0.24 0.25 0.25 0.34 0.41 0.47 0.53 0.58 0.63 0.62 0.61 0.57 0.54 0.52 0.51 0.53 0.57 0.63 0.77 0.98 1.19 1.47 1.70 1.93 1.91
0.24 0.28 0.31 0.33 0.36 0.37 0.39 0.40 0.41 0.43 0.44 0.43 0.42 0.41 0.39 0.37 0.34 0.32 0.28 0.27 0.27 0.29 0.37 0.42 0.43 0.52 0.55 0.58 0.59 0.60 0.58 0.56 0.54 0.52 0.52 0.55 0.59 0.68 0.85 1.07 1.34 1.49 1.84
0.30 0.32 0.34 0.37 0.42 0.44 0.45 0.47 0.48 0.49 0.48 0.47 0.46 0.46 0.45 0.43 0.42 0.38 0.35 0.30 0.32 0.30 0.33 0.38 0.42 0.43 0.48 0.53 0.55 0.56 0.57 0.57 0.56 0.54 0.52 0.51 0.53 0.56 0.61 0.72 0.90 1.09 1.36
0.32 0.36 0.42 0.47 0.50 0.51 0.51 0.51 0.53 0.52 0.52 0.50 0.50 0.51 0.50 0.49 0.48 0.45 0.41 0.37 0.35 0.31 0.31 0.34 0.39 0.40 0.39 0.43 0.47 0.50 0.53 0.53 0.52 0.53 0.53 0.52 0.51 0.52 0.54 0.56 0.62 0.75 0.88
0.40 0.46 0.50 0.56 0.56 0.56 0.58 0.57 0.56 0.55 0.55 0.55 0.55 0.54 0.52 0.52 0.52 0.51 0.48 0.45 0.40 0.36 0.32 0.33 0.35 0.41 0.39 0.37 0.41 0.47 0.50 0.50 0.50 0.51 0.49 0.50 0.49 0.48 0.49 0.50 0.52 0.55 0.61
0.50 0.53 0.58 0.59 0.59 0.61 0.62 0.61 0.59 0.58 0.58 0.59 0.58 0.58 0.57 0.57 0.55 0.54 0.53 0.52 0.48 0.43 0.36 0.33 0.32 0.38 0.41 0.36 0.35 0.35 0.37 0.39 0.43 0.44 0.46 0.48 0.50 0.47 0.45 0.45 0.47 0.46 0.53
0.54 0.58 0.60 0.60 0.61 0.63 0.62 0.60 0.59 0.57 0.60 0.61 0.61 0.62 0.61 0.60 0.59 0.57 0.55 0.54 0.53 0.48 0.44 0.37 0.32 0.35 0.37 0.39 0.36 0.34 0.33 0.34 0.35 0.39 0.44 0.46 0.45 0.46 0.44 0.42 0.44 0.47 0.48
0.56 0.59 0.60 0.61 0.62 0.65 0.66 0.66 0.66 0.65 0.66 0.66 0.66 0.65 0.65 0.63 0.61 0.59 0.57 0.55 0.55 0.53 0.48 0.45 0.36 0.32 0.37 0.41 0.35 0.33 0.26 0.27 0.29 0.34 0.42 0.44 0.42 0.40 0.40 0.40 0.41 0.44 0.45
0.56 0.56 0.56 0.57 0.56 0.60 0.65 0.66 0.65 0.68 0.68 0.66 0.67 0.67 0.69 0.68 0.66 0.62 0.59 0.58 0.56 0.55 0.52 0.49 0.43 0.36 0.36 0.41 0.42 0.35 0.27 0.20 0.25 0.31 0.32 0.35 0.37 0.40 0.43 0.42 0.44 0.44 0.43
0.53 0.53 0.54 0.51 0.52 0.56 0.59 0.54 0.53 0.54 0.57 0.64 0.67 0.69 0.70 0.69 0.67 0.65 0.62 0.60 0.58 0.57 0.54 0.52 0.50 0.42 0.38 0.36 0.42 0.43 0.37 0.31 0.25 0.23 0.30 0.32 0.34 0.35 0.42 0.44 0.46 0.44 0.43
0.49 0.47 0.48 0.46 0.47 0.50 0.47 0.50 0.50 0.49 0.52 0.63 0.67 0.68 0.69 0.67 0.66 0.64 0.62 0.59 0.57 0.57 0.57 0.54 0.51 0.48 0.41 0.38 0.38 0.40 0.38 0.37 0.37 0.31 0.26 0.27 0.32 0.33 0.37 0.43 0.48 0.46 0.44
0.44 0.42 0.43 0.40 0.40 0.42 0.45 0.49 0.49 0.48 0.49 0.53 0.63 0.65 0.66 0.63 0.62 0.62 0.62 0.61 0.60 0.58 0.57 0.56 0.54 0.51 0.46 0.41 0.39 0.38 0.37 0.36 0.34 0.33 0.30 0.28 0.28 0.30 0.32 0.37 0.44 0.47 0.45
Wind_Speed
17 18 18 18 17 17 17 17 17 17 17 16 15 16 17 18 19 19 20 20 20 19 20 19 19 19 19 19 18 17 17 17 17 16 16 16 15 15 15 15 15 13 13
18 18 18 18 18 19 19 19 19 19 19 19 19 18 17 18 20 20 21 21 22 22 21 21 21 21 20 21 21 20 20 20 19 18 18 17 17 17 16 17 16 16 14
17 17 19 19 20 20 20 21 21 21 21 21 21 21 20 19 18 18 20 21 23 23 23 24 23 23 23 22 22 22 22 22 21 20 20 19 19 18 18 17 18 17 17
19 20 20 21 23 22 22 23 23 23 23 23 23 23 23 23 23 23 22 21 22 22 24 25 26 25 25 24 24 24 24 23 23 22 22 21 21 21 20 20 19 19 18
21 22 23 25 24 25 26 27 26 27 27 27 26 26 26 26 26 27 26 25 24 23 23 23 26 27 27 27 26 26 26 25 25 24 24 23 23 23 23 22 21 21 20
23 25 27 27 29 31 31 30 31 31 30 31 31 31 30 30 29 28 28 28 28 27 27 26 26 25 26 28 28 28 28 27 27 26 26 25 24 24 25 24 23 23 22
26 29 30 32 33 34 35 35 36 36 36 36 36 35 35 35 34 32 32 31 30 30 29 29 29 29 27 25 25 27 28 29 29 28 28 27 27 26 27 26 25 24 24
30 32 34 35 36 38 39 40 39 40 40 40 40 40 39 38 37 37 36 35 34 33 32 31 31 31 30 30 29 29 27 29 29 30 29 29 29 27 28 28 27 26 26
35 37 38 39 40 41 42 42 43 43 44 44 44 43 43 42 42 41 41 39 38 38 37 36 35 34 34 32 30 30 32 29 29 29 31 31 31 30 30 30 29 28 28
37 39 40 42 42 43 44 44 45 46 46 47 47 47 48 47 47 46 46 46 45 44 42 41 39 38 36 36 35 33 31 33 33 30 30 31 33 32 32 32 31 30 29
39 41 43 45 46 47 47 48 48 48 49 50 49 49 50 50 50 50 49 49 48 47 47 45 43 41 40 38 37 36 35 34 34 35 33 31 33 35 33 34 34 33 31
43 44 45 47 47 48 49 49 49 49 49 49 50 51 52 52 51 52 53 52 51 51 50 48 48 46 45 43 41 39 38 36 36 35 35 35 33 33 36 35 36 35 35
45 45 45 44 44 43 43 43 44 45 46 47 48 49 50 52 53 53 53 54 53 53 53 53 52 51 49 47 45 43 41 39 38 37 36 37 34 34 34 38 37 37 37
45 43 40 41 40 41 41 40 40 40 41 42 43 45 46 48 49 52 52 54 55 54 54 55 54 54 52 51 49 46 45 43 41 39 39 37 37 36 34 34 37 37 39
40 38 38 38 39 38 36 39 39 40 41 40 39 39 40 42 45 46 49 51 52 54 54 54 55 54 54 53 52 50 48 46 44 42 41 40 39 39 37 36 37 32 40
35 35 35 36 38 36 38 35 36 37 36 36 38 39 39 40 39 41 43 44 49 51 54 54 54 53 54 54 53 52 51 49 48 46 44 42 41 40 40 39 38 37 25
34 35 36 37 38 37 35 36 36 36 35 34 34 36 37 37 39 38 39 41 42 45 50 52 55 56 57 55 55 54 54 53 51 50 48 46 45 43 43 42 42 41 42
35 36 37 38 39 38 37 36 36 34 33 33 33 34 33 35 36 37 39 39 40 41 42 47 51 54 57 57 57 55 55 55 54 53 51 50 48 47 46 45 44 45 44
35 37 36 40 37 35 37 36 34 33 32 33 34 33 32 33 35 37 38 39 39 40 41 41 45 50 54 56 57 56 56 55 55 54 53 53 52 50 49 48 48 47 47
35 35 39 37 36 37 35 32 31 31 31 32 32 33 34 35 36 37 38 40 39 39 40 40 41 43 49 51 53 55 55 55 55 56 56 55 54 53 51 50 49 49 47
34 38 38 36 36 35 33 31 31 31 31 31 31 32 32 32 32 33 33 36 39 39 41 41 41 42 44 47 48 51 53 55 56 56 56 56 55 54 53 52 51 50 48
35 37 37 36 36 35 33 33 33 33 33 32 31 31 31 32 33 32 32 33 36 38 38 38 39 39 40 42 44 45 46 49 54 55 56 55 55 54 54 54 54 52 50
36 37 36 37 37 37 36 35 34 34 34 33 31 31 32 32 33 31 32 32 32 35 36 36 34 35 35 37 41 41 41 45 45 50 54 55 55 53 52 52 53 53 52
36 37 37 38 39 38 38 37 37 36 35 33 31 31 32 32 32 31 31 30 30 31 35 35 35 34 34 35 37 40 42 42 42 44 49 52 53 54 53 53 53 53 53
37 38 38 39 39 39 40 39 39 38 37 34 30 29 31 32 31 30 29 27 27 28 31 33 35 36 36 35 36 36 37 38 40 41 43 47 52 54 55 54 53 53 53
37 38 38 40 40 40 41 41 41 40 38 34 30 28 30 30 30 30 27 26 25 25 28 31 32 33 33 34 34 36 36 36 36 38 40 43 47 50 53 54 54 53 53
Wind_Direction
314 317 321 322 320 317 315 313 311 309 306 306 306 294 287 280 275 272 269 267 266 264 262 260 258 255 251 249 247 247 244 244 243 241 239 236 232 229 228 227 228 223 221
309 315 315 317 316 313 311 309 306 304 301 299 297 297 296 286 278 274 270 268 265 264 262 259 257 254 252 249 247 246 245 244 243 241 239 236 233 231 230 231 226 224 224
314 315 318 316 313 312 308 305 302 301 299 297 293 291 288 287 288 283 277 272 265 263 261 259 256 254 252 250 248 246 245 244 243 241 239 236 235 233 232 229 225 226 227
312 314 312 312 310 307 307 303 301 298 296 294 291 289 285 282 281 280 279 277 271 266 262 259 256 254 252 250 248 246 245 244 242 241 239 238 237 236 233 230 230 230 229
311 312 310 310 306 306 304 301 298 295 292 290 289 287 285 282 280 277 275 274 271 268 266 262 258 254 253 250 249 247 245 244 243 241 240 240 239 237 234 232 232 230 228
309 309 309 306 302 301 299 297 296 293 291 287 285 282 281 280 279 276 275 272 270 268 265 263 260 257 255 252 249 247 246 244 243 242 240 239 239 239 232 232 232 230 228
308 307 305 304 301 299 297 295 292 290 288 286 283 282 278 276 275 273 271 270 269 268 265 262 260 257 255 253 250 248 246 245 243 242 241 240 239 238 232 232 232 231 229
307 306 305 303 300 298 296 293 290 289 286 285 282 279 277 275 273 270 269 267 265 265 264 262 259 257 255 254 253 250 248 245 244 242 241 239 238 238 233 232 232 230 229
306 305 304 303 300 298 296 293 290 288 286 283 281 278 275 274 272 269 267 266 264 263 262 260 259 257 254 253 253 250 246 244 244 245 242 240 238 238 236 232 232 230 230
306 305 304 303 301 299 296 294 291 288 286 283 280 277 274 273 271 269 266 264 263 262 260 258 257 256 254 252 251 250 247 245 243 245 243 242 239 237 237 233 232 232 231
307 306 305 304 302 299 297 294 291 288 286 283 280 278 275 272 270 268 266 264 263 261 258 256 254 254 253 251 250 249 248 247 244 244 243 243 241 238 237 234 233 232 231
308 307 305 304 302 300 297 294 292 289 287 284 280 278 275 273 270 267 265 264 262 260 257 255 253 252 252 250 249 247 247 246 245 244 242 242 242 240 237 237 234 233 231
310 309 308 307 305 304 302 299 296 293 290 286 283 280 276 273 269 267 266 263 261 259 256 254 253 252 250 249 247 246 246 245 245 243 242 241 242 241 241 236 235 233 231
313 312 312 311 310 309 305 304 302 299 296 293 288 283 280 275 270 269 265 263 260 258 256 254 252 250 248 247 246 245 244 244 243 243 242 242 240 240 240 237 236 235 233
316 316 316 316 316 314 311 309 305 302 297 294 291 289 285 279 276 272 267 264 260 257 256 254 251 249 246 245 244 244 243 243 242 242 242 241 240 239 238 236 234 239 234
319 320 320 319 320 316 314 312 310 309 306 300 293 289 286 283 281 276 271 267 262 259 255 252 250 247 245 244 244 243 242 242 242 241 241 241 240 238 238 237 235 234 236
323 323 322 320 319 317 315 313 312 310 309 307 302 296 290 284 282 278 274 270 265 261 255 253 250 247 245 244 243 242 242 242 242 241 241 240 239 238 238 238 237 236 238
326 326 324 323 321 317 314 313 312 310 309 308 306 304 297 289 282 279 276 271 266 263 260 254 250 248 245 244 243 242 242 242 241 240 240 240 239 239 238 239 239 238 239
330 329 329 327 326 323 319 315 313 311 308 308 308 306 302 296 290 282 275 273 269 263 260 257 252 249 247 245 243 242 241 241 240 240 239 239 239 239 239 240 240 240 240
336 336 333 332 330 326 324 319 317 315 313 310 308 307 304 300 295 287 279 271 267 264 258 257 255 251 246 243 242 241 241 240 240 240 239 239 239 239 239 239 239 240 239
341 341 341 338 336 335 331 327 323 320 317 314 312 310 309 306 302 295 287 276 266 262 259 256 255 252 247 243 242 241 241 241 240 240 239 238 239 239 239 238 238 237 237
343 344 345 345 343 341 337 331 325 320 318 315 313 312 311 309 305 300 293 284 271 261 257 255 253 250 246 242 240 240 241 242 240 238 237 238 239 239 238 237 236 236 237
345 345 345 344 342 341 339 335 331 325 318 314 312 312 314 312 309 304 298 290 277 262 256 252 250 244 244 242 240 239 240 240 241 239 237 238 238 236 236 235 234 235 236
346 345 345 344 343 342 339 337 334 331 328 319 311 311 314 314 312 308 303 295 283 266 254 249 247 246 243 242 241 240 242 241 240 241 239 236 235 235 236 235 234 235 236
345 344 344 344 343 342 340 338 335 331 328 325 317 313 316 316 315 312 307 300 290 271 256 249 246 245 244 243 241 240 240 240 240 239 240 238 237 236 236 236 234 234 236
345 345 345 344 343 342 341 339 336 334 330 327 322 319 320 321 319 316 310 304 295 280 259 250 246 243 242 240 241 239 240 239 240 240 241 240 238 237 235 235 235 234 235